Tracking 25964 objects as of 12-Aug-2022
HD Live streaming from Space Station
objects crossing your sky now

GLOBAL-8

Track GLOBAL-8 now!
10-day predictions


NORAD ID: 46089
Int'l Code: 2020-055BQ
Perigee: 399.1 km
Apogee: 421.0 km
Inclination: 53.0 °
Period: 92.6 minutes
Semi major axis: 6781 km
RCS: Unknown
Launch date: August 7, 2020
Source: United States (US)
Launch site: AIR FORCE EASTERN TEST RANGE (AFETR)
aabbcc
Your satellite tracking list
Your tracking list is empty




NASA's NSSDC Master Catalog

Two Line Element Set (TLE):
1 46089U 20055BQ  22223.69877484  .00021111  00000-0  31698-3 0  9999
2 46089  53.0024 331.4393 0016198 132.8356 227.4018 15.54736347118944
Source of the keplerian elements: AFSPC